Showing default

METEOSAT 11 (MSG 4), 40732

Orbit data source: Space-Track

METEOSAT 11 (MSG 4), 40732 is a payload satellite owned by EUMETSAT (DE) in GEO that was launched on Wed, 15 Jul 2015 UTC via an ARIANE 5ECA launch vehicle from the French Guiana (FRGUI). Payloads include a variety of satellites, spacecraft, and rockets equipped with specific instruments for various scientific and technological missions. These include communications satellites like Starlink; space stations such as the ISS; scientific satellites like the Hubble; Earth observation satellites from companies like Planet Labs, Umbra, and HawkEye 360; GPS; miniature CubeSats for education and research; and military/defense satellites.

Not visible in the next 10 days
METEOSAT 11 (MSG 4) details
Identifier
40732, 2015-034A
Orbit
GEO
Last TLE update11 hours ago
Origin
Flag of DEEUMETSAT (DE / EUME)
ManufacturerThales Alenia
MissionOperational Civil Weather
Bus & MotorMSG, S400 X2
Mass2,043 kg wet, 1,000 kg dry
Launch date (UTC)
2015-07-15 (9 years ago)
Launch vehicle
ARIANE 5ECA
Launch site
French Guiana (FRGUI)
Object type
Payload
Rocket body
Debris
Shape & HBRCyl, 3.2 m
Radar Cross Section9.802 m², Large (>1 m²)

Expand to show TLE details & history

TLE from 11 hours ago
0 METEOSAT 11 (MSG 4)
1 40732U 15034A   24360.95960837  .00000088  00000-0  00000+0 0  9996
2 40732   1.8551  71.7403 0001882 169.8265 208.0448  1.00269640 34614
Epoch: 2024-12-25T23:01Z
Definitive object data (Epoch: 2024-12-25T23:01:50.163Z)
Latitude0.59077°
Longitude9.18176°
Altitude35,793.65 km
Speed3.074 km/s
True Right ascension05h 58m 20s
True Declination0° 35' 25"
Sunlit
Object was in daylight at TLE epoch
Visualization TLE readout
Latitude-0.35352°
Longitude-178.39907°
Altitude35,779.227 km
Speed3.075 km/s
Apparent Right ascension17h 51m 06s
Apparent Declination-5° 34' 16"
Sunlit
Object is in daylight
Visualization observer readout
Local Sidereal Time09:50:44
Azimuth74.075° E
Elevation-26.423°
Doppler factor1
Orbital elements
Apogee altitude35,796.201 km
Perigee altitude35,780.329 km
Semi-major axis42,166.402 km
Eccentricity0.0001882
Inclination1.8551°
RAAN71.7403°
Arg. of periapsis169.8265°
True anomaly208.03466°
Mean anomaly208.0448°
Eccentric anomaly208.03973°
Mean motion0.25066 °/min
BSTARUnknown
Orbital period1436.18 mins
Loading historical data...
40732 neighbors
Authenticating...
Loading maneuver chart data...
Loading historical data...
Loading historical data...
Loading historical data...
Loading historical data...
Loading historical data...
Loading historical data...
Loading historical data...

METEOSAT 11 (MSG 4) Visibility forecast

Observer location: undefined°, undefined

METEOSAT 11 (MSG 4) is not visible in the next 10 days
Span
Click to sort rows by Start time (UTC) header in descending order
Start Az.
Max El. time (UTC)
Max El. Az.
Max El.
End time (UTC)
End Az.
|